Time,TemperatureF,DewpointF,PressureIn,WindDirection,WindDirectionDegrees,WindSpeedMPH,WindSpeedGustMPH,Humidity,HourlyPrecipIn,Conditions,Clouds,dailyrainin,SoftwareType,DateUTC
2013-10-14 00:09:00,46.1,44.8,30.39,North,0,0.0,0.0,95,0.00,,CLR,0.00,VWS V14.01,2013-10-14 04:09:00,
2013-10-14 00:19:00,45.7,44.1,30.38,North,0,0.0,0.0,94,0.00,,CLR,0.00,VWS V14.01,2013-10-14 04:19:00,
2013-10-14 00:29:00,45.7,44.4,30.38,North,0,0.0,0.0,95,0.00,,CLR,0.00,VWS V14.01,2013-10-14 04:29:00,
2013-10-14 00:39:00,45.5,44.2,30.39,North,0,0.0,0.0,95,0.00,,CLR,0.00,VWS V14.01,2013-10-14 04:39:00,
2013-10-14 00:49:00,45.5,44.2,30.38,North,0,0.0,0.0,95,0.00,,CLR,0.00,VWS V14.01,2013-10-14 04:49:00,
2013-10-14 00:59:00,45.4,44.1,30.39,North,0,0.0,0.0,95,0.00,,CLR,0.00,VWS V14.01,2013-10-14 04:59:00,
2013-10-14 01:09:00,45.1,43.8,30.38,North,0,0.0,0.0,95,0.00,,CLR,0.00,VWS V14.01,2013-10-14 05:09:00,
2013-10-14 01:19:00,45.1,43.8,30.38,North,0,1.4,2.7,95,0.00,,CLR,0.00,VWS V14.01,2013-10-14 05:19:00,
2013-10-14 01:29:00,45.1,43.8,30.37,North,6,0.0,2.7,95,0.00,,CLR,0.00,VWS V14.01,2013-10-14 05:29:00,
2013-10-14 01:39:00,44.9,43.6,30.37,North,6,0.0,2.7,95,0.00,,CLR,0.00,VWS V14.01,2013-10-14 05:39:00,
2013-10-14 01:49:00,44.8,43.5,30.37,North,6,0.0,0.0,95,0.00,,CLR,0.00,VWS V14.01,2013-10-14 05:49:00,
2013-10-14 01:59:00,44.4,43.0,30.36,North,6,0.0,0.0,95,0.00,,CLR,0.00,VWS V14.01,2013-10-14 05:59:00,
2013-10-14 02:10:00,44.4,43.0,30.36,North,6,0.0,1.4,95,0.00,,CLR,0.00,VWS V14.01,2013-10-14 06:10:00,
2013-10-14 02:19:00,44.4,43.0,30.35,North,6,0.0,0.0,95,0.00,,CLR,0.00,VWS V14.01,2013-10-14 06:19:00,
2013-10-14 02:30:00,44.3,43.2,30.35,North,6,0.0,0.0,96,0.00,,CLR,0.00,VWS V14.01,2013-10-14 06:30:00,
2013-10-14 02:40:00,44.1,43.0,30.35,North,6,0.0,0.0,96,0.00,,CLR,0.00,VWS V14.01,2013-10-14 06:40:00,
2013-10-14 02:50:00,44.1,42.8,30.35,North,6,0.0,1.4,95,0.00,,CLR,0.00,VWS V14.01,2013-10-14 06:50:00,
2013-10-14 03:00:00,43.8,42.7,30.35,North,6,0.0,2.7,96,0.00,,CLR,0.00,VWS V14.01,2013-10-14 07:00:00,
2013-10-14 03:10:00,44.0,42.6,30.35,North,6,0.0,1.4,95,0.00,,CLR,0.00,VWS V14.01,2013-10-14 07:10:00,
2013-10-14 03:20:00,43.8,42.7,30.35,North,6,0.0,0.0,96,0.00,,CLR,0.00,VWS V14.01,2013-10-14 07:20:00,
2013-10-14 03:30:00,43.7,42.3,30.35,North,6,0.0,0.0,95,0.00,,CLR,0.00,VWS V14.01,2013-10-14 07:30:00,
2013-10-14 03:39:00,43.5,42.1,30.35,North,6,0.0,0.0,95,0.00,,CLR,0.00,VWS V14.01,2013-10-14 07:39:00,
2013-10-14 03:49:00,43.7,42.9,30.35,North,6,0.0,2.7,97,0.00,,CLR,0.00,VWS V14.01,2013-10-14 07:49:00,
2013-10-14 03:59:00,43.5,42.7,30.35,North,6,1.4,1.4,97,0.00,,CLR,0.00,VWS V14.01,2013-10-14 07:59:00,
2013-10-14 04:09:00,43.4,42.3,30.35,North,4,0.0,0.0,96,0.00,,CLR,0.00,VWS V14.01,2013-10-14 08:09:00,
2013-10-14 04:19:00,43.4,42.3,30.35,North,4,0.0,0.0,96,0.00,,CLR,0.00,VWS V14.01,2013-10-14 08:19:00,
2013-10-14 04:29:00,43.4,42.6,30.35,North,4,0.0,1.4,97,0.00,,CLR,0.00,VWS V14.01,2013-10-14 08:29:00,
2013-10-14 04:39:00,43.7,42.9,30.34,North,4,0.0,1.4,97,0.00,,CLR,0.00,VWS V14.01,2013-10-14 08:39:00,
2013-10-14 04:49:00,43.8,43.0,30.35,North,4,0.0,1.4,97,0.01,,CLR,0.01,VWS V14.01,2013-10-14 08:49:00,
2013-10-14 04:59:00,43.7,42.9,30.35,North,4,1.4,2.7,97,0.01,,CLR,0.01,VWS V14.01,2013-10-14 08:59:00,
2013-10-14 05:09:00,43.7,42.9,30.35,North,4,0.0,0.0,97,0.01,,CLR,0.01,VWS V14.01,2013-10-14 09:09:00,
2013-10-14 05:19:00,43.5,42.7,30.35,North,4,1.4,1.4,97,0.01,,CLR,0.01,VWS V14.01,2013-10-14 09:19:00,
2013-10-14 05:29:00,43.5,42.7,30.35,North,4,0.0,2.7,97,0.01,,CLR,0.01,VWS V14.01,2013-10-14 09:29:00,
2013-10-14 05:39:00,43.7,42.9,30.35,North,4,1.4,1.4,97,0.01,,CLR,0.01,VWS V14.01,2013-10-14 09:39:00,
2013-10-14 05:49:00,43.5,42.7,30.35,North,4,0.0,0.0,97,0.01,,CLR,0.01,VWS V14.01,2013-10-14 09:49:00,
2013-10-14 05:59:00,43.4,42.6,30.35,North,4,0.0,0.0,97,0.00,,CLR,0.01,VWS V14.01,2013-10-14 09:59:00,
2013-10-14 06:09:00,43.4,42.6,30.35,North,4,0.0,0.0,97,0.00,,CLR,0.01,VWS V14.01,2013-10-14 10:09:00,
2013-10-14 06:19:00,43.4,42.6,30.35,North,4,0.0,0.0,97,0.00,,CLR,0.01,VWS V14.01,2013-10-14 10:19:00,
2013-10-14 06:29:00,43.3,42.5,30.35,North,4,0.0,2.7,97,0.00,,CLR,0.01,VWS V14.01,2013-10-14 10:29:00,
2013-10-14 06:39:00,43.0,42.3,30.35,North,4,0.0,0.0,97,0.00,,CLR,0.01,VWS V14.01,2013-10-14 10:39:00,
2013-10-14 06:49:00,43.0,42.2,30.35,North,4,0.0,0.0,97,0.00,,CLR,0.01,VWS V14.01,2013-10-14 10:49:00,
2013-10-14 06:59:00,42.7,42.0,30.35,North,4,0.0,0.0,97,0.00,,CLR,0.01,VWS V14.01,2013-10-14 10:59:00,
2013-10-14 07:10:00,43.0,42.2,30.35,North,4,0.0,0.0,97,0.00,,CLR,0.01,VWS V14.01,2013-10-14 11:10:00,
2013-10-14 07:19:00,43.0,42.2,30.35,North,4,0.0,2.7,97,0.00,,CLR,0.01,VWS V14.01,2013-10-14 11:19:00,
2013-10-14 07:30:00,43.0,42.3,30.35,North,4,0.0,2.7,97,0.00,,CLR,0.01,VWS V14.01,2013-10-14 11:30:00,
2013-10-14 07:40:00,43.4,42.6,30.35,NNE,17,1.4,4.1,97,0.00,,CLR,0.01,VWS V14.01,2013-10-14 11:40:00,
2013-10-14 07:50:00,43.7,43.2,30.35,NNE,24,4.1,4.1,98,0.00,,CLR,0.01,VWS V14.01,2013-10-14 11:50:00,
2013-10-14 08:00:00,44.3,43.2,30.36,NNE,21,0.0,1.4,96,0.00,,CLR,0.01,VWS V14.01,2013-10-14 12:00:00,
2013-10-14 08:10:00,44.8,44.0,30.35,NNE,22,0.0,0.0,97,0.00,,CLR,0.01,VWS V14.01,2013-10-14 12:10:00,
2013-10-14 08:20:00,45.2,44.4,30.36,NNE,22,0.0,0.0,97,0.00,,CLR,0.01,VWS V14.01,2013-10-14 12:20:00,
2013-10-14 08:30:00,45.7,44.9,30.36,NNE,22,0.0,1.4,97,0.00,,CLR,0.01,VWS V14.01,2013-10-14 12:30:00,
2013-10-14 08:39:00,46.5,45.9,30.36,NNE,21,1.4,2.7,98,0.00,,CLR,0.01,VWS V14.01,2013-10-14 12:39:00,
2013-10-14 08:49:00,47.5,46.4,30.36,NNE,21,1.4,1.4,96,0.00,,CLR,0.01,VWS V14.01,2013-10-14 12:49:00,
2013-10-14 08:59:00,48.3,47.2,30.37,NNE,23,2.7,2.7,96,0.00,,CLR,0.01,VWS V14.01,2013-10-14 12:59:00,
2013-10-14 09:09:00,49.1,47.5,30.37,NNE,23,0.0,1.4,94,0.00,,CLR,0.01,VWS V14.01,2013-10-14 13:09:00,
2013-10-14 09:19:00,50.0,48.0,30.36,NNE,31,1.4,1.4,93,0.00,,CLR,0.01,VWS V14.01,2013-10-14 13:19:00,
2013-10-14 09:29:00,51.0,48.5,30.36,ENE,76,1.4,4.1,91,0.00,,CLR,0.01,VWS V14.01,2013-10-14 13:29:00,
2013-10-14 09:39:00,51.8,48.7,30.36,ENE,76,0.0,1.4,89,0.00,,CLR,0.01,VWS V14.01,2013-10-14 13:39:00,
2013-10-14 09:49:00,52.6,48.9,30.36,NE,43,0.0,2.7,87,0.00,,CLR,0.01,VWS V14.01,2013-10-14 13:49:00,
2013-10-14 09:59:00,53.2,48.5,30.36,NE,46,1.4,2.7,84,0.00,,CLR,0.01,VWS V14.01,2013-10-14 13:59:00,
2013-10-14 10:09:00,53.7,48.3,30.36,NE,46,0.0,1.4,82,0.00,,CLR,0.01,VWS V14.01,2013-10-14 14:09:00,
2013-10-14 10:19:00,54.3,48.2,30.35,NW,317,0.0,1.4,80,0.00,,CLR,0.01,VWS V14.01,2013-10-14 14:19:00,
2013-10-14 10:29:00,54.7,48.3,30.35,WNW,302,2.7,4.1,79,0.00,,CLR,0.01,VWS V14.01,2013-10-14 14:29:00,
2013-10-14 10:39:00,55.6,48.2,30.34,ENE,70,1.4,4.1,76,0.00,,CLR,0.01,VWS V14.01,2013-10-14 14:39:00,
2013-10-14 10:49:00,56.3,48.5,30.34,ENE,66,0.0,4.1,75,0.00,,CLR,0.01,VWS V14.01,2013-10-14 14:49:00,
2013-10-14 10:59:00,56.8,47.8,30.34,SE,145,0.0,2.7,72,0.00,,CLR,0.01,VWS V14.01,2013-10-14 14:59:00,
2013-10-14 11:09:00,57.0,47.7,30.34,SSW,206,5.4,5.4,71,0.00,,CLR,0.01,VWS V14.01,2013-10-14 15:09:00,
2013-10-14 11:19:00,57.1,47.8,30.33,SSE,153,2.7,4.1,71,0.00,,CLR,0.01,VWS V14.01,2013-10-14 15:19:00,
2013-10-14 11:29:00,58.0,48.3,30.33,South,177,4.1,5.4,70,0.00,,CLR,0.01,VWS V14.01,2013-10-14 15:29:00,
2013-10-14 11:40:00,58.7,48.2,30.33,South,173,1.4,4.1,68,0.00,,CLR,0.01,VWS V14.01,2013-10-14 15:40:00,
2013-10-14 11:50:00,60.2,49.2,30.33,SE,125,2.7,5.4,67,0.00,,CLR,0.01,VWS V14.01,2013-10-14 15:50:00,
2013-10-14 12:00:00,61.0,48.3,30.32,SE,125,1.4,2.7,63,0.00,,CLR,0.01,VWS V14.01,2013-10-14 16:00:00,
2013-10-14 12:10:00,61.2,48.1,30.31,SE,125,0.0,1.4,62,0.00,,CLR,0.01,VWS V14.01,2013-10-14 16:10:00,
2013-10-14 12:20:00,61.7,46.8,30.31,NNE,21,0.0,2.7,58,0.00,,CLR,0.01,VWS V14.01,2013-10-14 16:20:00,
2013-10-14 12:30:00,61.4,47.4,30.31,ENE,70,0.0,1.4,60,0.00,,CLR,0.01,VWS V14.01,2013-10-14 16:30:00,
2013-10-14 12:40:00,62.8,46.0,30.30,NNE,30,0.0,5.4,54,0.00,,CLR,0.01,VWS V14.01,2013-10-14 16:40:00,
2013-10-14 12:50:00,62.7,45.9,30.29,NE,55,1.4,4.1,54,0.00,,CLR,0.01,VWS V14.01,2013-10-14 16:50:00,
2013-10-14 13:00:00,62.8,45.5,30.30,SSW,201,4.1,5.4,53,0.00,,CLR,0.01,VWS V14.01,2013-10-14 17:00:00,
2013-10-14 13:10:00,64.0,47.0,30.29,South,188,4.1,4.1,54,0.00,,CLR,0.01,VWS V14.01,2013-10-14 17:10:00,
2013-10-14 13:20:00,63.5,45.5,30.29,South,178,0.0,2.7,52,0.00,,CLR,0.01,VWS V14.01,2013-10-14 17:20:00,
2013-10-14 13:30:00,63.5,44.5,30.28,South,181,4.1,6.8,50,0.00,,CLR,0.01,VWS V14.01,2013-10-14 17:30:00,
2013-10-14 13:39:00,62.5,44.7,30.28,SE,146,0.0,5.4,52,0.00,,CLR,0.01,VWS V14.01,2013-10-14 17:39:00,
2013-10-14 13:49:00,63.3,44.9,30.28,SE,139,2.7,4.1,51,0.00,,CLR,0.01,VWS V14.01,2013-10-14 17:49:00,
2013-10-14 13:59:00,63.3,49.2,30.28,SE,146,2.7,2.7,60,0.00,,CLR,0.01,VWS V14.01,2013-10-14 17:59:00,
2013-10-14 14:09:00,62.8,49.2,30.27,ESE,121,2.7,5.4,61,0.00,,BKN150,0.01,VWS V14.01,2013-10-14 18:09:00,
2013-10-14 14:19:00,62.5,50.2,30.28,SE,146,0.0,1.4,64,0.00,,BKN150,0.01,VWS V14.01,2013-10-14 18:19:00,
2013-10-14 14:29:00,61.7,49.8,30.28,SSE,151,0.0,2.7,65,0.00,,BKN150,0.01,VWS V14.01,2013-10-14 18:29:00,
2013-10-14 14:39:00,61.2,49.8,30.28,SSE,161,2.7,2.7,66,0.00,,BKN150,0.01,VWS V14.01,2013-10-14 18:39:00,
2013-10-14 14:49:00,60.4,49.4,30.28,SE,136,0.0,2.7,67,0.00,,BKN150,0.01,VWS V14.01,2013-10-14 18:49:00,
2013-10-14 14:59:00,60.0,49.9,30.28,SSW,205,4.1,4.1,69,0.00,,BKN150,0.01,VWS V14.01,2013-10-14 18:59:00,
2013-10-14 15:09:00,59.2,49.5,30.28,South,187,5.4,8.1,70,0.00,,BKN200,0.01,VWS V14.01,2013-10-14 19:09:00,
2013-10-14 15:19:00,58.9,49.2,30.27,SSW,194,1.4,6.8,70,0.00,,BKN200,0.01,VWS V14.01,2013-10-14 19:19:00,
2013-10-14 15:29:00,59.2,49.1,30.27,SSW,192,0.0,4.1,69,0.00,,BKN200,0.01,VWS V14.01,2013-10-14 19:29:00,
2013-10-14 15:39:00,59.3,48.4,30.27,WNW,286,1.4,5.4,67,0.00,,BKN200,0.01,VWS V14.01,2013-10-14 19:39:00,
2013-10-14 15:49:00,60.0,48.6,30.27,South,190,2.7,4.1,66,0.00,,BKN200,0.01,VWS V14.01,2013-10-14 19:49:00,
2013-10-14 15:59:00,60.0,48.7,30.27,SE,140,0.0,2.7,66,0.00,,BKN200,0.01,VWS V14.01,2013-10-14 19:59:00,
2013-10-14 16:09:00,60.5,48.2,30.26,ESE,105,4.1,5.4,64,0.00,,CLR,0.01,VWS V14.01,2013-10-14 20:09:00,
2013-10-14 16:19:00,60.2,48.8,30.26,East,98,0.0,1.4,66,0.00,,CLR,0.01,VWS V14.01,2013-10-14 20:19:00,
2013-10-14 16:29:00,59.8,48.5,30.26,South,186,0.0,2.7,66,0.00,,CLR,0.01,VWS V14.01,2013-10-14 20:29:00,
2013-10-14 16:39:00,59.6,48.3,30.26,ESE,113,0.0,0.0,66,0.00,,CLR,0.01,VWS V14.01,2013-10-14 20:39:00,
2013-10-14 16:49:00,59.6,48.3,30.26,ESE,113,0.0,2.7,66,0.00,,CLR,0.01,VWS V14.01,2013-10-14 20:49:00,
2013-10-14 16:59:00,59.6,48.3,30.26,East,101,1.4,1.4,66,0.00,,CLR,0.01,VWS V14.01,2013-10-14 20:59:00,
2013-10-14 17:09:00,59.2,48.7,30.26,East,95,0.0,1.4,68,0.00,,BKN200,0.01,VWS V14.01,2013-10-14 21:09:00,
2013-10-14 17:19:00,58.3,48.2,30.27,SSE,166,0.0,2.7,69,0.00,,BKN200,0.01,VWS V14.01,2013-10-14 21:19:00,
2013-10-14 17:29:00,57.6,48.6,30.27,South,169,0.0,0.0,72,0.00,,BKN200,0.01,VWS V14.01,2013-10-14 21:29:00,
2013-10-14 17:40:00,57.0,48.4,30.27,SSE,155,0.0,0.0,73,0.00,,BKN200,0.01,VWS V14.01,2013-10-14 21:40:00,
2013-10-14 17:50:00,56.7,48.8,30.27,SSE,154,0.0,0.0,75,0.00,,BKN200,0.01,VWS V14.01,2013-10-14 21:50:00,
2013-10-14 18:00:00,56.2,48.4,30.27,SSE,160,0.0,0.0,75,0.00,,BKN200,0.01,VWS V14.01,2013-10-14 22:00:00,
2013-10-14 18:10:00,55.6,48.5,30.27,SSE,160,0.0,0.0,77,0.00,,BKN200,0.01,VWS V14.01,2013-10-14 22:10:00,
2013-10-14 18:20:00,54.5,48.1,30.27,SSE,159,0.0,0.0,79,0.00,,BKN200,0.01,VWS V14.01,2013-10-14 22:20:00,
2013-10-14 18:30:00,53.3,48.0,30.27,SSE,158,0.0,0.0,82,0.00,,BKN200,0.01,VWS V14.01,2013-10-14 22:30:00,
2013-10-14 18:39:00,52.7,48.0,30.27,SSE,154,0.0,0.0,84,0.00,,BKN200,0.01,VWS V14.01,2013-10-14 22:39:00,
2013-10-14 18:49:00,52.2,47.8,30.28,SE,136,0.0,0.0,85,0.00,,BKN200,0.01,VWS V14.01,2013-10-14 22:49:00,
2013-10-14 18:59:00,51.7,47.7,30.28,SE,138,0.0,0.0,86,0.00,,BKN200,0.01,VWS V14.01,2013-10-14 22:59:00,
2013-10-14 19:09:00,51.3,47.3,30.28,SE,141,0.0,0.0,86,0.00,,CLR,0.01,VWS V14.01,2013-10-14 23:09:00,
2013-10-14 19:19:00,51.0,47.3,30.28,SE,141,0.0,0.0,87,0.00,,CLR,0.01,VWS V14.01,2013-10-14 23:19:00,
2013-10-14 19:29:00,50.7,47.0,30.28,SE,136,0.0,0.0,87,0.00,,CLR,0.01,VWS V14.01,2013-10-14 23:29:00,
2013-10-14 19:39:00,50.3,46.8,30.28,SE,130,0.0,0.0,88,0.00,,CLR,0.01,VWS V14.01,2013-10-14 23:39:00,
2013-10-14 19:49:00,50.2,47.0,30.28,SE,132,0.0,0.0,89,0.00,,CLR,0.01,VWS V14.01,2013-10-14 23:49:00,
2013-10-14 19:59:00,49.8,46.6,30.28,SSE,163,0.0,0.0,89,0.00,,CLR,0.01,VWS V14.01,2013-10-14 23:59:00,
2013-10-14 20:09:00,49.7,46.5,30.28,SSE,167,0.0,0.0,89,0.00,,SCT200,0.01,VWS V14.01,2013-10-15 00:09:00,
2013-10-14 20:19:00,49.7,46.5,30.28,SSE,167,0.0,0.0,89,0.00,,SCT200,0.01,VWS V14.01,2013-10-15 00:19:00,
2013-10-14 20:29:00,49.4,46.6,30.28,SSE,168,0.0,0.0,90,0.00,,SCT200,0.01,VWS V14.01,2013-10-15 00:29:00,
2013-10-14 20:39:00,49.4,46.6,30.28,SSE,167,0.0,0.0,90,0.00,,SCT200,0.01,VWS V14.01,2013-10-15 00:39:00,
2013-10-14 20:49:00,49.2,46.4,30.28,SSE,164,0.0,0.0,90,0.00,,SCT200,0.01,VWS V14.01,2013-10-15 00:49:00,
2013-10-14 20:59:00,49.1,46.6,30.28,SSE,167,0.0,0.0,91,0.00,,SCT200,0.01,VWS V14.01,2013-10-15 00:59:00,
2013-10-14 21:09:00,49.0,46.5,30.28,SSE,166,0.0,0.0,91,0.00,,SCT200,0.01,VWS V14.01,2013-10-15 01:09:00,
2013-10-14 21:19:00,49.0,46.8,30.28,South,169,0.0,0.0,92,0.00,,SCT200,0.01,VWS V14.01,2013-10-15 01:19:00,
2013-10-14 21:29:00,49.0,47.1,30.27,SSE,167,0.0,0.0,93,0.00,,SCT200,0.01,VWS V14.01,2013-10-15 01:29:00,
2013-10-14 21:39:00,49.1,47.2,30.27,South,170,0.0,0.0,93,0.00,,SCT200,0.01,VWS V14.01,2013-10-15 01:39:00,
2013-10-14 21:49:00,49.1,47.2,30.27,SSE,168,0.0,0.0,93,0.00,,SCT200,0.01,VWS V14.01,2013-10-15 01:49:00,
2013-10-14 21:59:00,49.0,47.1,30.27,SSE,168,0.0,0.0,93,0.00,,SCT200,0.01,VWS V14.01,2013-10-15 01:59:00,
2013-10-14 22:09:00,48.9,47.0,30.27,South,170,0.0,0.0,93,0.00,,CLR,0.01,VWS V14.01,2013-10-15 02:09:00,
2013-10-14 22:19:00,48.8,46.9,30.27,South,170,0.0,0.0,93,0.00,,CLR,0.01,VWS V14.01,2013-10-15 02:19:00,
2013-10-14 22:29:00,48.5,46.6,30.27,South,171,0.0,0.0,93,0.00,,CLR,0.01,VWS V14.01,2013-10-15 02:29:00,
2013-10-14 22:39:00,48.4,46.5,30.27,South,173,0.0,0.0,93,0.00,,CLR,0.01,VWS V14.01,2013-10-15 02:39:00,
2013-10-14 22:49:00,48.4,46.5,30.27,South,174,0.0,0.0,93,0.00,,CLR,0.01,VWS V14.01,2013-10-15 02:49:00,
2013-10-14 22:59:00,48.3,46.4,30.27,South,174,0.0,0.0,93,0.00,,CLR,0.01,VWS V14.01,2013-10-15 02:59:00,
2013-10-14 23:09:00,48.1,46.2,30.27,South,177,0.0,0.0,93,0.00,,CLR,0.01,VWS V14.01,2013-10-15 03:09:00,
2013-10-14 23:19:00,48.2,46.3,30.27,South,177,0.0,0.0,93,0.00,,CLR,0.01,VWS V14.01,2013-10-15 03:19:00,
2013-10-14 23:29:00,48.3,46.4,30.27,South,177,0.0,0.0,93,0.00,,CLR,0.01,VWS V14.01,2013-10-15 03:29:00,
2013-10-14 23:40:00,48.1,46.2,30.27,South,177,0.0,0.0,93,0.00,,CLR,0.01,VWS V14.01,2013-10-15 03:40:00,
2013-10-14 23:50:00,48.1,46.2,30.26,South,177,0.0,0.0,93,0.00,,CLR,0.01,VWS V14.01,2013-10-15 03:50:00,